Weather History for KLWD - June, 2013

Change the Weather History Date:

Wednesday, June 26, 2013

  Actual Average Record
Temperature  
Mean Temperature 82 °F 74 °F  
Max Temperature 90 °F 83 °F - ()
Min Temperature 73 °F 64 °F - ()
Degree Days  
Heating Degree Days 0 0  
Month to date heating degree days 32 16  
Since 1 June heating degree days 32 16  
Since 1 July heating degree days 6092 6076  
Cooling Degree Days 17 9  
Month to date cooling degree days 164 157  
Year to date cooling degree days 240 211  
Since 1 June cooling degree days 164 157  
Growing Degree Days 32 (Base 50)    
Moisture  
Dew Point 68 °F    
Average Humidity 63    
Maximum Humidity 87    
Minimum Humidity 38    
Precipitation  
Precipitation 0.00 in 0.13 in - ()
Month to date precipitation 3.65 4.44  
Sea Level Pressure  
Sea Level Pressure 29.76 in    
Wind  
Wind Speed 9 mph (West)    
Max Wind Speed 21 mph    
Max Gust Speed 28 mph    
Visibility 10 miles    
Events      
T = Trace of Precipitation, MM = Missing Value Source: NWS Daily Summary

Daily Weather History Graph

Daily Weather History Graph

Search for Another Location

Airport or City:

Trip Planner

Search our weather history database for the weather conditions in past years. The results will help you decide how hot, cold, wet, or windy it might be!

Date:

Astronomy

Jun. 26, 2013 Rise Set
Actual Time 5:46 AM CDT 8:50 PM CDT
Civil Twilight 5:13 AM CDT 9:23 PM CDT
Nautical Twilight 4:30 AM CDT 10:06 PM CDT
Astronomical Twilight 3:40 AM CDT 10:56 PM CDT
Moon 11:12 PM CDT (6/26) 9:40 AM CDT (6/26)
Length of Visible Light 16h 10m
Length of Day
15h 04m
Waning Gibbous, 85% of the Moon is Illuminated
Jun 26
Waning Gibbous
Jun 29
Last Quarter
Jul 8
New
Jul 15
First Quarter
Jul 22
Full

Hourly Weather History & Observations

Time (CDT) Temp. Heat Index Dew Point Humidity Pressure Visibility Wind Dir Wind Speed Gust Speed Precip Events Conditions
12:53 AM 75.9 °F - 70.0 °F 82% 29.70 in 10.0 mi South 11.5 mph - 0.05 in   Mostly Cloudy
1:53 AM 75.9 °F - 69.1 °F 79% 29.68 in 10.0 mi South 9.2 mph - N/A   Scattered Clouds
2:53 AM 75.9 °F - 69.1 °F 79% 29.66 in 10.0 mi South 9.2 mph - N/A   Clear
3:53 AM 75.0 °F - 69.1 °F 82% 29.66 in 10.0 mi South 8.1 mph - N/A   Clear
4:53 AM 73.9 °F - 69.1 °F 85% 29.68 in 10.0 mi SSW 6.9 mph - N/A   Clear
5:53 AM 73.0 °F - 69.1 °F 87% 29.70 in 10.0 mi South 5.8 mph - N/A   Clear
6:53 AM 73.9 °F - 70.0 °F 87% 29.70 in 9.0 mi SSW 6.9 mph - N/A   Partly Cloudy
7:53 AM 75.9 °F - 71.1 °F 85% 29.72 in 10.0 mi WSW 10.4 mph - N/A   Clear
8:53 AM 81.0 °F 85.8 °F 73.0 °F 77% 29.73 in 10.0 mi West 8.1 mph - N/A   Clear
9:53 AM 84.0 °F 91.2 °F 73.9 °F 72% 29.73 in 10.0 mi WNW 9.2 mph - N/A   Clear
10:53 AM 86.0 °F 95.1 °F 75.0 °F 70% 29.75 in 10.0 mi NW 8.1 mph - N/A   Partly Cloudy
11:53 AM 87.1 °F 97.3 °F 75.9 °F 69% 29.76 in 10.0 mi West 11.5 mph 18.4 mph N/A   Mostly Cloudy
12:53 PM 88.0 °F 95.6 °F 73.0 °F 61% 29.77 in 10.0 mi West 12.7 mph - N/A   Clear
1:53 PM 89.1 °F 93.7 °F 69.1 °F 52% 29.77 in 10.0 mi NW 15.0 mph - N/A   Clear
2:53 PM 90.0 °F 91.3 °F 64.0 °F 42% 29.78 in 10.0 mi WNW 17.3 mph 26.5 mph N/A   Clear
3:53 PM 90.0 °F 90.6 °F 63.0 °F 40% 29.78 in 10.0 mi NW 15.0 mph 21.9 mph N/A   Clear
4:53 PM 89.1 °F 89.0 °F 61.0 °F 39% 29.80 in 10.0 mi NW 13.8 mph 21.9 mph N/A   Clear
5:53 PM 89.1 °F 90.0 °F 63.0 °F 42% 29.80 in 10.0 mi NW 11.5 mph - N/A   Clear
6:53 PM 88.0 °F 89.3 °F 64.0 °F 45% 29.80 in 10.0 mi NNW 6.9 mph - N/A   Clear
7:53 PM 84.9 °F 87.6 °F 66.9 °F 55% 29.80 in 10.0 mi WNW 3.5 mph - N/A   Clear
8:53 PM 79.0 °F - 68.0 °F 69% 29.81 in 10.0 mi WNW 6.9 mph - N/A   Clear
9:53 PM 75.0 °F - 66.0 °F 73% 29.83 in 10.0 mi West 6.9 mph - N/A   Clear
10:53 PM 73.0 °F - 64.9 °F 76% 29.85 in 10.0 mi West 6.9 mph - N/A   Clear
11:53 PM 73.9 °F - 64.9 °F 73% 29.86 in 10.0 mi West 5.8 mph - N/A   Clear